Location: Newark
(34.0131°N, 4.3314°W)
Time: 15:00:43
(UTC+00:00)

Explorer 7 - Pass Details

Date: 16 October 2019
Orbit: 485 x 680 km, 50.3° (Epoch: 14 November)

Event Time Altitude Azimuth Distance (km) Brightness Sun altitude
Rises 18:01:35 0° 322° (NW) 2,645 10.8 -4.7°
Reaches altitude 10° 18:04:16 10° 341° (NNW) 1,789 9.6 -5.3°
Maximum altitude 18:07:13 19° 28° (NNE) 1,346 8.5 -5.9°
Drops below altitude 10° 18:10:18 10° 74° (ENE) 1,871 8.9 -6.5°
Enters shadow 18:10:50 - 79° (ENE) 2,032 9.0 -6.6°
Sets 18:13:10 0° 92° (E) 2,812 - -7.1°
